Time,TemperatureF,DewpointF,PressureIn,WindDirection,WindDirectionDegrees,WindSpeedMPH,WindSpeedGustMPH,Humidity,HourlyPrecipIn,Conditions,Clouds,dailyrainin,SoftwareType,DateUTC
2013-01-29 00:09:00,44.4,43.0,30.27,SW,225,0.0,0.0,95,0.00,,,0.00,weatherlink.com 1.10,2013-01-29 05:09:00,
2013-01-29 00:25:00,44.0,43.0,30.27,SW,225,0.0,0.0,95,0.00,,,0.00,weatherlink.com 1.10,2013-01-29 05:25:00,
2013-01-29 00:42:00,43.8,43.0,30.27,SW,225,0.0,0.0,95,0.00,,,0.00,weatherlink.com 1.10,2013-01-29 05:42:00,
2013-01-29 00:58:00,43.8,43.0,30.27,SW,225,0.0,0.0,96,0.00,,,0.00,weatherlink.com 1.10,2013-01-29 05:58:00,
2013-01-29 01:00:00,44.0,42.9,30.25,SW,225,0.0,0.0,96,0.00,,---,0.00,VWS V14.01,2013-01-29 06:00:00,
2013-01-29 01:14:00,43.8,43.0,30.27,SW,224,0.0,0.0,96,0.00,,,0.00,weatherlink.com 1.10,2013-01-29 06:14:00,
2013-01-29 01:31:00,43.9,43.0,30.26,SW,225,0.0,0.0,96,0.00,,,0.00,weatherlink.com 1.10,2013-01-29 06:31:00,
2013-01-29 01:48:00,44.0,43.0,30.26,SW,225,0.0,0.0,96,0.00,,,0.00,weatherlink.com 1.10,2013-01-29 06:48:00,
2013-01-29 02:04:00,44.0,43.0,30.25,SW,225,0.0,0.0,96,0.00,,,0.00,weatherlink.com 1.10,2013-01-29 07:04:00,
2013-01-29 02:20:00,44.3,44.0,30.25,SW,225,0.0,0.0,97,0.00,,,0.00,weatherlink.com 1.10,2013-01-29 07:20:00,
2013-01-29 02:37:00,44.7,44.0,30.25,SW,224,0.0,0.0,97,0.00,,,0.00,weatherlink.com 1.10,2013-01-29 07:37:00,
2013-01-29 02:54:00,44.8,44.0,30.25,SW,224,0.0,0.0,97,0.00,,,0.00,weatherlink.com 1.10,2013-01-29 07:54:00,
2013-01-29 03:00:00,45.7,44.9,30.25,SW,225,0.0,0.0,97,0.00,,---,0.00,VWS V14.01,2013-01-29 08:00:00,
2013-01-29 03:09:00,45.3,45.0,30.25,SW,224,0.0,0.0,97,0.00,,,0.00,weatherlink.com 1.10,2013-01-29 08:09:00,
2013-01-29 03:26:00,45.5,45.0,30.25,SW,224,0.0,0.0,97,0.00,,,0.00,weatherlink.com 1.10,2013-01-29 08:26:00,
2013-01-29 03:43:00,45.5,45.0,30.25,SW,224,0.0,0.0,97,0.00,,,0.00,weatherlink.com 1.10,2013-01-29 08:43:00,
2013-01-29 03:58:00,45.6,45.0,30.25,SW,225,0.0,0.0,97,0.00,,,0.00,weatherlink.com 1.10,2013-01-29 08:58:00,
2013-01-29 04:15:00,45.8,45.0,30.24,WNW,284,0.0,2.0,97,0.00,,,0.00,weatherlink.com 1.10,2013-01-29 09:15:00,
2013-01-29 04:31:00,45.8,45.0,30.24,WNW,284,0.0,1.0,97,0.00,,,0.00,weatherlink.com 1.10,2013-01-29 09:31:00,
2013-01-29 04:48:00,46.0,45.0,30.23,WNW,284,0.0,0.0,97,0.00,,,0.00,weatherlink.com 1.10,2013-01-29 09:48:00,
2013-01-29 05:00:00,47.7,47.2,30.21,SSW,207,0.0,3.0,98,0.00,,---,0.00,VWS V14.01,2013-01-29 10:00:00,
2013-01-29 05:04:00,46.5,46.0,30.22,SSW,207,0.0,3.0,97,0.00,,,0.00,weatherlink.com 1.10,2013-01-29 10:04:00,
2013-01-29 05:21:00,47.0,47.0,30.21,SSW,207,0.0,0.0,98,0.00,,,0.00,weatherlink.com 1.10,2013-01-29 10:21:00,
2013-01-29 05:37:00,47.1,46.0,30.21,SSW,207,0.0,0.0,97,0.00,,,0.00,weatherlink.com 1.10,2013-01-29 10:37:00,
2013-01-29 05:54:00,47.4,47.0,30.21,SSW,207,0.0,0.0,98,0.00,,,0.00,weatherlink.com 1.10,2013-01-29 10:54:00,
2013-01-29 06:10:00,48.2,48.0,30.21,SSW,207,0.0,1.0,98,0.00,,,0.00,weatherlink.com 1.10,2013-01-29 11:10:00,
2013-01-29 06:27:00,48.2,48.0,30.21,SSW,207,0.0,0.0,98,0.00,,,0.00,weatherlink.com 1.10,2013-01-29 11:27:00,
2013-01-29 06:44:00,48.5,48.0,30.21,SSW,207,0.0,0.0,98,0.00,,,0.00,weatherlink.com 1.10,2013-01-29 11:44:00,
2013-01-29 07:00:00,48.9,48.0,30.21,SSW,207,0.0,0.0,98,0.00,,,0.00,weatherlink.com 1.10,2013-01-29 12:00:00,
2013-01-29 07:16:00,49.3,49.0,30.21,SSW,207,0.0,1.0,98,0.00,,,0.00,weatherlink.com 1.10,2013-01-29 12:16:00,
2013-01-29 07:33:00,49.8,49.0,30.21,SSW,207,0.0,1.0,98,0.00,,,0.00,weatherlink.com 1.10,2013-01-29 12:33:00,
2013-01-29 07:49:00,50.3,50.0,30.21,SSW,207,0.0,0.0,97,0.00,,,0.00,weatherlink.com 1.10,2013-01-29 12:49:00,
2013-01-29 08:05:00,50.7,50.0,30.20,SSW,207,0.0,0.0,97,0.00,,,0.00,weatherlink.com 1.10,2013-01-29 13:05:00,
2013-01-29 08:22:00,51.1,50.0,30.20,SSW,207,0.0,0.0,97,0.00,,,0.00,weatherlink.com 1.10,2013-01-29 13:22:00,
2013-01-29 08:38:00,51.6,51.0,30.21,SSW,207,0.0,0.0,97,0.00,,,0.00,weatherlink.com 1.10,2013-01-29 13:38:00,
2013-01-29 08:55:00,52.5,52.0,30.21,SSW,207,0.0,2.0,97,0.00,,,0.00,weatherlink.com 1.10,2013-01-29 13:55:00,
2013-01-29 09:00:00,54.8,53.4,30.20,ENE,67,0.0,3.0,95,0.00,,---,0.00,VWS V14.01,2013-01-29 14:00:00,
2013-01-29 09:11:00,53.0,52.0,30.20,SSW,207,0.0,1.0,97,0.00,,,0.00,weatherlink.com 1.10,2013-01-29 14:11:00,
2013-01-29 09:28:00,53.6,53.0,30.20,SSW,207,0.0,2.0,96,0.00,,,0.00,weatherlink.com 1.10,2013-01-29 14:28:00,
2013-01-29 09:44:00,54.3,53.0,30.20,SE,128,0.0,3.0,96,0.00,,,0.00,weatherlink.com 1.10,2013-01-29 14:44:00,
2013-01-29 10:01:00,54.9,54.0,30.20,ENE,67,1.0,2.0,95,0.00,,,0.00,weatherlink.com 1.10,2013-01-29 15:01:00,
2013-01-29 10:17:00,55.0,54.0,30.20,ESE,118,0.0,0.0,95,0.00,,,0.00,weatherlink.com 1.10,2013-01-29 15:17:00,
2013-01-29 10:34:00,55.1,54.0,30.21,ESE,118,0.0,0.0,94,0.00,,,0.00,weatherlink.com 1.10,2013-01-29 15:34:00,
2013-01-29 10:50:00,55.1,54.0,30.21,ENE,65,1.0,3.0,94,0.00,,,0.00,weatherlink.com 1.10,2013-01-29 15:50:00,
2013-01-29 11:00:00,59.2,56.0,30.17,SSE,157,5.0,7.0,89,0.00,,---,0.00,VWS V14.01,2013-01-29 16:00:00,
2013-01-29 11:06:00,55.7,54.0,30.20,ENE,64,4.0,4.0,92,0.00,,,0.00,weatherlink.com 1.10,2013-01-29 16:06:00,
2013-01-29 11:23:00,56.4,54.0,30.19,SE,140,1.0,3.0,92,0.00,,,0.00,weatherlink.com 1.10,2013-01-29 16:23:00,
2013-01-29 11:39:00,57.7,55.0,30.18,SSE,153,2.0,3.0,91,0.00,,,0.00,weatherlink.com 1.10,2013-01-29 16:39:00,
2013-01-29 11:56:00,58.9,56.0,30.17,ESE,119,3.0,6.0,89,0.00,,,0.00,weatherlink.com 1.10,2013-01-29 16:56:00,
2013-01-29 12:12:00,60.2,57.0,30.16,South,170,5.0,7.0,88,0.00,,,0.00,weatherlink.com 1.10,2013-01-29 17:12:00,
2013-01-29 12:29:00,60.7,57.0,30.15,SE,129,3.0,5.0,86,0.00,,,0.00,weatherlink.com 1.10,2013-01-29 17:29:00,
2013-01-29 12:45:00,62.0,57.0,30.14,SE,144,3.0,7.0,83,0.00,,,0.00,weatherlink.com 1.10,2013-01-29 17:45:00,
2013-01-29 13:00:00,65.9,57.8,30.09,ESE,118,4.0,8.0,75,0.00,,---,0.00,VWS V14.01,2013-01-29 18:00:00,
2013-01-29 13:02:00,62.7,57.0,30.13,South,175,1.0,6.0,82,0.00,,,0.00,weatherlink.com 1.10,2013-01-29 18:02:00,
2013-01-29 13:18:00,64.0,58.0,30.11,South,169,2.0,7.0,80,0.00,,,0.00,weatherlink.com 1.10,2013-01-29 18:18:00,
2013-01-29 13:35:00,64.9,58.0,30.10,SE,140,3.0,8.0,78,0.00,,,0.00,weatherlink.com 1.10,2013-01-29 18:35:00,
2013-01-29 13:52:00,65.8,58.0,30.09,South,169,3.0,7.0,76,0.00,,,0.00,weatherlink.com 1.10,2013-01-29 18:52:00,
2013-01-29 14:08:00,66.4,58.0,30.08,SSE,158,3.0,7.0,75,0.00,,,0.00,weatherlink.com 1.10,2013-01-29 19:08:00,
2013-01-29 14:24:00,67.4,58.0,30.07,SE,129,5.0,7.0,72,0.00,,,0.00,weatherlink.com 1.10,2013-01-29 19:24:00,
2013-01-29 14:41:00,68.5,58.0,30.07,South,171,7.0,10.0,70,0.00,,,0.00,weatherlink.com 1.10,2013-01-29 19:41:00,
2013-01-29 14:58:00,68.3,58.0,30.06,SSE,161,6.0,10.0,69,0.00,,,0.00,weatherlink.com 1.10,2013-01-29 19:58:00,
2013-01-29 15:00:00,69.2,58.2,30.05,SE,136,2.0,11.0,68,0.00,,---,0.00,VWS V14.01,2013-01-29 20:00:00,
2013-01-29 15:13:00,68.5,58.0,30.06,SSE,167,4.0,7.0,69,0.00,,,0.00,weatherlink.com 1.10,2013-01-29 20:13:00,
2013-01-29 15:30:00,68.8,58.0,30.05,SSW,193,5.0,9.0,68,0.00,,,0.00,weatherlink.com 1.10,2013-01-29 20:30:00,
2013-01-29 15:47:00,69.2,58.0,30.05,SSE,153,3.0,5.0,68,0.00,,,0.00,weatherlink.com 1.10,2013-01-29 20:47:00,
2013-01-29 16:03:00,69.1,59.0,30.05,SE,129,1.0,7.0,69,0.00,,,0.00,weatherlink.com 1.10,2013-01-29 21:03:00,
2013-01-29 16:20:00,68.8,58.0,30.05,SSE,148,3.0,6.0,69,0.00,,,0.00,weatherlink.com 1.10,2013-01-29 21:20:00,
2013-01-29 16:36:00,68.6,58.0,30.04,ESE,107,2.0,5.0,70,0.00,,,0.00,weatherlink.com 1.10,2013-01-29 21:36:00,
2013-01-29 16:53:00,68.4,59.0,30.04,ESE,105,1.0,6.0,71,0.00,,,0.00,weatherlink.com 1.10,2013-01-29 21:53:00,
2013-01-29 17:00:00,67.5,58.9,30.01,ESE,106,0.0,11.0,74,0.00,,---,0.00,VWS V14.01,2013-01-29 22:00:00,
2013-01-29 17:09:00,68.3,59.0,30.03,SE,145,1.0,8.0,72,0.00,,,0.00,weatherlink.com 1.10,2013-01-29 22:09:00,
2013-01-29 17:25:00,68.2,59.0,30.02,SSE,157,2.0,11.0,72,0.00,,,0.00,weatherlink.com 1.10,2013-01-29 22:25:00,
2013-01-29 17:42:00,67.9,59.0,30.02,ESE,123,2.0,5.0,73,0.00,,,0.00,weatherlink.com 1.10,2013-01-29 22:42:00,
2013-01-29 17:58:00,67.6,59.0,30.01,SE,130,2.0,8.0,74,0.00,,,0.00,weatherlink.com 1.10,2013-01-29 22:58:00,
2013-01-29 18:14:00,67.1,59.0,30.01,East,90,2.0,4.0,75,0.00,,,0.00,weatherlink.com 1.10,2013-01-29 23:14:00,
2013-01-29 18:32:00,66.8,59.0,30.01,ESE,113,2.0,5.0,76,0.00,,,0.00,weatherlink.com 1.10,2013-01-29 23:32:00,
2013-01-29 18:48:00,66.6,59.0,30.00,East,87,2.0,5.0,77,0.00,,,0.00,weatherlink.com 1.10,2013-01-29 23:48:00,
2013-01-29 19:00:00,65.9,59.9,30.00,ESE,109,2.0,7.0,81,0.00,,---,0.00,VWS V14.01,2013-01-30 00:00:00,
2013-01-29 19:04:00,66.4,59.0,30.01,SE,125,2.0,6.0,78,0.00,,,0.00,weatherlink.com 1.10,2013-01-30 00:04:00,
2013-01-29 19:20:00,66.2,60.0,30.01,East,98,1.0,7.0,79,0.00,,,0.00,weatherlink.com 1.10,2013-01-30 00:20:00,
2013-01-29 19:37:00,66.0,60.0,30.00,East,101,0.0,5.0,80,0.00,,,0.00,weatherlink.com 1.10,2013-01-30 00:37:00,
2013-01-29 19:53:00,65.9,60.0,30.00,ESE,122,3.0,5.0,80,0.00,,,0.00,weatherlink.com 1.10,2013-01-30 00:53:00,
2013-01-29 20:09:00,65.8,60.0,30.01,ESE,103,1.0,7.0,81,0.00,,,0.00,weatherlink.com 1.10,2013-01-30 01:09:00,
2013-01-29 20:26:00,65.6,60.0,30.01,ESE,118,2.0,6.0,82,0.00,,,0.00,weatherlink.com 1.10,2013-01-30 01:26:00,
2013-01-29 20:43:00,65.0,60.0,30.00,ESE,109,3.0,8.0,85,0.00,,,0.00,weatherlink.com 1.10,2013-01-30 01:43:00,
2013-01-29 20:59:00,64.5,61.0,30.00,SE,124,1.0,8.0,88,0.00,,,0.00,weatherlink.com 1.10,2013-01-30 01:59:00,
2013-01-29 21:00:00,63.2,61.2,29.98,ENE,63,1.0,9.0,93,0.01,,---,0.01,VWS V14.01,2013-01-30 02:00:00,
2013-01-29 21:15:00,64.1,61.0,29.99,SE,131,2.0,5.0,89,0.00,,,0.00,weatherlink.com 1.10,2013-01-30 02:15:00,
2013-01-29 21:32:00,63.7,61.0,29.99,SE,139,4.0,7.0,91,0.01,,,0.01,weatherlink.com 1.10,2013-01-30 02:32:00,
2013-01-29 21:48:00,63.4,61.0,29.99,NNW,348,0.0,4.0,92,0.01,,,0.01,weatherlink.com 1.10,2013-01-30 02:48:00,
2013-01-29 22:05:00,63.1,61.0,29.98,East,99,0.0,3.0,93,0.01,,,0.01,weatherlink.com 1.10,2013-01-30 03:05:00,
2013-01-29 22:21:00,62.8,61.0,29.98,East,100,0.0,1.0,93,0.01,,,0.01,weatherlink.com 1.10,2013-01-30 03:21:00,
2013-01-29 22:37:00,62.5,61.0,29.97,East,99,1.0,2.0,94,0.00,,,0.01,weatherlink.com 1.10,2013-01-30 03:37:00,
2013-01-29 22:53:00,62.3,61.0,29.96,ESE,107,0.0,3.0,94,0.00,,,0.01,weatherlink.com 1.10,2013-01-30 03:53:00,
2013-01-29 23:00:00,63.2,60.5,29.96,South,177,2.0,7.0,91,0.00,,---,0.01,VWS V14.01,2013-01-30 04:00:00,
2013-01-29 23:10:00,62.4,61.0,29.97,SSE,148,2.0,5.0,94,0.00,,,0.01,weatherlink.com 1.10,2013-01-30 04:10:00,
2013-01-29 23:27:00,62.9,61.0,29.96,SSE,161,5.0,5.0,92,0.00,,,0.01,weatherlink.com 1.10,2013-01-30 04:27:00,
2013-01-29 23:43:00,63.1,61.0,29.96,SSE,164,2.0,6.0,92,0.00,,,0.01,weatherlink.com 1.10,2013-01-30 04:43:00,
2013-01-29 23:59:00,63.2,61.0,29.96,South,169,2.0,7.0,91,0.00,,,0.01,weatherlink.com 1.10,2013-01-30 04:59:00,